| time (UTC) | temp C | wind direction | speed KPH | gust KPH | rain 1hr cm | rain 24hr cm | rain mn cm | humidity % | barometer mb |
| 20260505230034 | 25 | 297 | 1.6 | 8.0 | 0.00 | 0.00 | 0.00 | 59 | 1014.3 |
| 20260505225513 | 25 | 4 | 1.6 | 8.0 | 0.00 | 0.00 | 0.00 | 58 | 1014.2 |
| 20260505225013 | 25 | 259 | 0.0 | 6.4 | 0.00 | 0.00 | 0.00 | 58 | 1014.3 |
| 20260505224537 | 25 | 40 | 1.6 | 6.4 | 0.00 | 0.00 | 0.00 | 58 | 1014.3 |
| 20260505224013 | 25 | 319 | 1.6 | 6.4 | 0.00 | 0.00 | 0.00 | 57 | 1014.4 |
| 20260505223517 | 26 | 4 | 1.6 | 6.4 | 0.00 | 0.00 | 0.00 | 57 | 1014.3 |
| 20260505223456 | 26 | 46 | 0.0 | 9.7 | 0.00 | 0.00 | 0.00 | 57 | 1014.2 |
| 20260505221532 | 26 | 5 | 0.0 | 8.0 | 0.00 | 0.00 | 0.00 | 56 | 1014.1 |
| 20260505221015 | 26 | 343 | 1.6 | 9.7 | 0.00 | 0.00 | 0.00 | 56 | 1014.3 |
| 20260505220514 | 26 | 18 | 1.6 | 9.7 | 0.00 | 0.00 | 0.00 | 55 | 1014.3 |
| 20260505220041 | 26 | 9 | 3.2 | 11.3 | 0.00 | 0.00 | 0.00 | 55 | 1014.4 |
| 20260505215516 | 27 | 321 | 1.6 | 11.3 | 0.00 | 0.00 | 0.00 | 56 | 1014.3 |
| 20260505215014 | 27 | 23 | 3.2 | 9.7 | 0.00 | 0.00 | 0.00 | 54 | 1014.2 |
| 20260505214554 | 27 | 316 | 1.6 | 9.7 | 0.00 | 0.00 | 0.00 | 55 | 1014.2 |
| 20260505214015 | 27 | 46 | 1.6 | 9.7 | 0.00 | 0.00 | 0.00 | 54 | 1014.3 |
| 20260505213514 | 27 | 30 | 3.2 | 9.7 | 0.00 | 0.00 | 0.00 | 54 | 1014.3 |
| 20260505213050 | 27 | 53 | 3.2 | 9.7 | 0.00 | 0.00 | 0.00 | 54 | 1014.2 |
| 20260505212514 | 27 | 288 | 3.2 | 9.7 | 0.00 | 0.00 | 0.00 | 55 | 1014.3 |
| 20260505212016 | 27 | 356 | 3.2 | 8.0 | 0.00 | 0.00 | 0.00 | 54 | 1014.3 |
| 20260505211535 | 27 | 341 | 3.2 | 9.7 | 0.00 | 0.00 | 0.00 | 55 | 1014.2 |
| 20260505211014 | 27 | 267 | 3.2 | 11.3 | 0.00 | 0.00 | 0.00 | 55 | 1014.2 |
| 20260505210516 | 28 | 297 | 1.6 | 11.3 | 0.00 | 0.00 | 0.00 | 55 | 1014.2 |
| 20260505210032 | 27 | 1 | 1.6 | 11.3 | 0.00 | 0.00 | 0.00 | 55 | 1014.3 |
| 20260505205519 | 27 | 297 | 3.2 | 11.3 | 0.00 | 0.00 | 0.00 | 55 | 1014.3 |
| 20260505205021 | 27 | 240 | 1.6 | 12.9 | 0.00 | 0.00 | 0.00 | 55 | 1014.2 |
| 20260505204536 | 27 | 299 | 4.8 | 12.9 | 0.00 | 0.00 | 0.00 | 55 | 1014.1 |
| 20260505204015 | 28 | 338 | 1.6 | 8.0 | 0.00 | 0.00 | 0.00 | 54 | 1014.2 |
| 20260505203514 | 28 | 354 | 3.2 | 8.0 | 0.00 | 0.00 | 0.00 | 55 | 1014.2 |
| 20260505203044 | 28 | 0 | 0.0 | 6.4 | 0.00 | 0.00 | 0.00 | 56 | 1014.2 |
| 20260505202515 | 28 | 4 | 1.6 | 6.4 | 0.00 | 0.00 | 0.00 | 56 | 1014.3 |
| 20260505202016 | 28 | 67 | 0.0 | 8.0 | 0.00 | 0.00 | 0.00 | 56 | 1014.4 |
| 20260505201547 | 27 | 330 | 1.6 | 8.0 | 0.00 | 0.00 | 0.00 | 56 | 1014.5 |
| 20260505201014 | 27 | 98 | 3.2 | 8.0 | 0.00 | 0.00 | 0.00 | 55 | 1014.4 |
| 20260505200515 | 28 | 245 | 1.6 | 9.7 | 0.00 | 0.00 | 0.00 | 55 | 1014.6 |
| 20260505200033 | 27 | 82 | 3.2 | 9.7 | 0.00 | 0.00 | 0.00 | 58 | 1014.6 |
| 20260505195514 | 27 | 298 | 0.0 | 8.0 | 0.00 | 0.00 | 0.00 | 59 | 1014.7 |
| 20260505195015 | 27 | 0 | 1.6 | 8.0 | 0.00 | 0.00 | 0.00 | 58 | 1014.7 |
| 20260505194536 | 27 | 20 | 1.6 | 8.0 | 0.00 | 0.00 | 0.00 | 57 | 1014.6 |
| 20260505194018 | 27 | 8 | 1.6 | 8.0 | 0.00 | 0.00 | 0.00 | 58 | 1014.9 |
| 20260505193513 | 27 | 297 | 1.6 | 8.0 | 0.00 | 0.00 | 0.00 | 58 | 1014.9 |
| 20260505193044 | 26 | 292 | 1.6 | 4.8 | 0.00 | 0.00 | 0.00 | 58 | 1014.9 |
| 20260505192516 | 27 | 96 | 1.6 | 6.4 | 0.00 | 0.00 | 0.00 | 58 | 1014.8 |
| 20260505192015 | 27 | 6 | 1.6 | 6.4 | 0.00 | 0.00 | 0.00 | 57 | 1014.8 |
| 20260505191541 | 27 | 20 | 1.6 | 6.4 | 0.00 | 0.00 | 0.00 | 56 | 1014.9 |
| 20260505191018 | 27 | 312 | 0.0 | 9.7 | 0.00 | 0.00 | 0.00 | 55 | 1014.9 |
| 20260505190514 | 27 | 25 | 0.0 | 9.7 | 0.00 | 0.00 | 0.00 | 56 | 1015.0 |
| 20260505190036 | 27 | 300 | 3.2 | 11.3 | 0.00 | 0.00 | 0.00 | 56 | 1015.2 |
| 20260505185520 | 27 | 349 | 3.2 | 11.3 | 0.00 | 0.00 | 0.00 | 55 | 1015.1 |
| 20260505185013 | 28 | 48 | 1.6 | 8.0 | 0.00 | 0.00 | 0.00 | 54 | 1015.2 |
| 20260505184534 | 28 | 11 | 1.6 | 8.0 | 0.00 | 0.00 | 0.00 | 53 | 1015.2 |
| 20260505184014 | 29 | 34 | 1.6 | 8.0 | 0.00 | 0.00 | 0.00 | 52 | 1015.1 |
| 20260505183514 | 29 | 73 | 1.6 | 6.4 | 0.00 | 0.00 | 0.00 | 52 | 1015.0 |
| 20260505183045 | 29 | 326 | 1.6 | 8.0 | 0.00 | 0.00 | 0.00 | 53 | 1015.1 |
| 20260505182516 | 29 | 290 | 1.6 | 9.7 | 0.00 | 0.00 | 0.00 | 53 | 1015.1 |
| 20260505182016 | 29 | 318 | 1.6 | 9.7 | 0.00 | 0.00 | 0.00 | 53 | 1015.2 |
| 20260505181533 | 28 | 66 | 3.2 | 8.0 | 0.00 | 0.00 | 0.00 | 53 | 1015.4 |
| 20260505181021 | 28 | 0 | 0.0 | 4.8 | 0.00 | 0.00 | 0.00 | 56 | 1015.3 |
| 20260505180514 | 28 | 0 | 0.0 | 4.8 | 0.00 | 0.00 | 0.00 | 55 | 1015.4 |
| 20260505180036 | 28 | 288 | 0.0 | 3.2 | 0.00 | 0.00 | 0.00 | 54 | 1015.6 |
| 20260505175515 | 28 | 338 | 0.0 | 3.2 | 0.00 | 0.00 | 0.00 | 54 | 1015.8 |
| 20260505175020 | 28 | 0 | 0.0 | 6.4 | 0.00 | 0.00 | 0.00 | 56 | 1015.6 |
| 20260505174540 | 28 | 311 | 0.0 | 6.4 | 0.00 | 0.00 | 0.00 | 56 | 1015.6 |
| 20260505174016 | 28 | 15 | 1.6 | 6.4 | 0.00 | 0.00 | 0.00 | 54 | 1015.6 |
| 20260505173513 | 28 | 298 | 1.6 | 4.8 | 0.00 | 0.00 | 0.00 | 55 | 1015.7 |
| 20260505173038 | 27 | 273 | 1.6 | 9.7 | 0.00 | 0.00 | 0.00 | 59 | 1015.8 |
| 20260505172513 | 27 | 95 | 1.6 | 9.7 | 0.00 | 0.00 | 0.00 | 60 | 1015.7 |
| 20260505172025 | 27 | 360 | 1.6 | 8.0 | 0.00 | 0.00 | 0.00 | 57 | 1015.9 |
| 20260505171539 | 27 | 307 | 1.6 | 8.0 | 0.00 | 0.00 | 0.00 | 57 | 1015.8 |
| 20260505171016 | 27 | 16 | 1.6 | 8.0 | 0.00 | 0.00 | 0.00 | 57 | 1016.0 |
| 20260505170519 | 27 | 354 | 1.6 | 6.4 | 0.00 | 0.00 | 0.00 | 56 | 1015.9 |
| 20260505170034 | 27 | 285 | 1.6 | 6.4 | 0.00 | 0.00 | 0.00 | 59 | 1015.8 |
| 20260505165514 | 27 | 30 | 1.6 | 8.0 | 0.00 | 0.00 | 0.00 | 60 | 1015.9 |
| 20260505165014 | 26 | 300 | 1.6 | 8.0 | 0.00 | 0.00 | 0.00 | 58 | 1016.0 |
| 20260505164537 | 26 | 332 | 3.2 | 8.0 | 0.00 | 0.00 | 0.00 | 60 | 1016.0 |
| 20260505164016 | 26 | 0 | 1.6 | 8.0 | 0.00 | 0.00 | 0.00 | 61 | 1016.1 |
| 20260505163516 | 26 | 316 | 0.0 | 6.4 | 0.00 | 0.00 | 0.00 | 62 | 1016.1 |
| 20260505163035 | 26 | 0 | 1.6 | 6.4 | 0.00 | 0.00 | 0.00 | 62 | 1016.1 |
| 20260505162514 | 26 | 316 | 1.6 | 6.4 | 0.00 | 0.00 | 0.00 | 62 | 1016.1 |
| 20260505162016 | 26 | 15 | 0.0 | 4.8 | 0.00 | 0.00 | 0.00 | 62 | 1016.1 |
| 20260505161536 | 26 | 300 | 1.6 | 4.8 | 0.00 | 0.00 | 0.00 | 61 | 1016.1 |
| 20260505161013 | 26 | 333 | 0.0 | 0.0 | 0.00 | 0.00 | 0.00 | 60 | 1016.0 |
| 20260505160514 | 26 | 0 | 0.0 | 4.8 | 0.00 | 0.00 | 0.00 | 61 | 1016.1 |
| 20260505153034 | 26 | 0 | 0.0 | 6.4 | 0.00 | 0.00 | 0.00 | 61 | 1015.9 |
| 20260505152516 | 26 | 167 | 1.6 | 6.4 | 0.00 | 0.00 | 0.00 | 62 | 1016.0 |
| 20260505152020 | 26 | 335 | 0.0 | 3.2 | 0.00 | 0.00 | 0.00 | 60 | 1016.0 |
| 20260505151533 | 27 | 287 | 0.0 | 4.8 | 0.00 | 0.00 | 0.00 | 60 | 1016.0 |
| 20260505151015 | 26 | 271 | 1.6 | 4.8 | 0.00 | 0.00 | 0.00 | 61 | 1016.0 |
| 20260505150522 | 27 | 289 | 0.0 | 4.8 | 0.00 | 0.00 | 0.00 | 58 | 1016.1 |
| 20260505140522 | 25 | 90 | 1.6 | 4.8 | 0.00 | 0.00 | 0.00 | 66 | 1015.8 |
| 20260505125016 | 20 | 0 | 0.0 | 0.0 | 0.00 | 0.00 | 0.00 | 98 | 1015.7 |
| 20260505124533 | 18 | 0 | 0.0 | 0.0 | 0.00 | 0.00 | 0.00 | 100 | 1015.7 |
| 20260505124018 | 18 | 0 | 0.0 | 1.6 | 0.00 | 0.00 | 0.00 | 100 | 1015.5 |
| 20260505123516 | 17 | 0 | 0.0 | 1.6 | 0.00 | 0.00 | 0.00 | 100 | 1015.5 |
| 20260505123046 | 17 | 0 | 0.0 | 1.6 | 0.00 | 0.00 | 0.00 | 100 | 1015.6 |
| 20260505122518 | 16 | 0 | 0.0 | 0.0 | 0.00 | 0.00 | 0.00 | 100 | 1015.5 |
| 20260505122014 | 15 | 0 | 0.0 | 0.0 | 0.00 | 0.00 | 0.00 | 100 | 1015.5 |
| 20260505121534 | 15 | 0 | 0.0 | 0.0 | 0.00 | 0.00 | 0.00 | 100 | 1015.4 |
| 20260505121017 | 15 | 0 | 0.0 | 0.0 | 0.00 | 0.00 | 0.00 | 100 | 1015.4 |
| 20260505120515 | 14 | 0 | 0.0 | 0.0 | 0.00 | 0.00 | 0.00 | 100 | 1015.3 |
| 20260505120046 | 13 | 0 | 0.0 | 0.0 | 0.00 | 0.00 | 0.00 | 100 | 1015.2 |
| 20260505115513 | 13 | 0 | 0.0 | 0.0 | 0.00 | 0.00 | 0.00 | 100 | 1015.2 |
| 20260505115014 | 13 | 0 | 0.0 | 0.0 | 0.00 | 0.00 | 0.00 | 100 | 1015.2 |
| 20260505114546 | 13 | 0 | 0.0 | 0.0 | 0.00 | 0.00 | 0.00 | 100 | 1015.2 |
| 20260505114016 | 12 | 0 | 0.0 | 0.0 | 0.00 | 0.00 | 0.00 | 100 | 1015.3 |
| 20260505113513 | 12 | 0 | 0.0 | 0.0 | 0.00 | 0.00 | 0.00 | 100 | 1015.3 |
| 20260505113031 | 12 | 0 | 0.0 | 0.0 | 0.00 | 0.00 | 0.00 | 100 | 1015.2 |
| 20260505112512 | 12 | 0 | 0.0 | 0.0 | 0.00 | 0.00 | 0.00 | 100 | 1015.2 |
| 20260505112011 | 12 | 0 | 0.0 | 0.0 | 0.00 | 0.00 | 0.00 | 100 | 1015.2 |
| 20260505111529 | 12 | 0 | 0.0 | 0.0 | 0.00 | 0.00 | 0.00 | 100 | 1015.1 |
| 20260505111014 | 12 | 0 | 0.0 | 0.0 | 0.00 | 0.00 | 0.00 | 100 | 1015.0 |
| 20260505110511 | 11 | 0 | 0.0 | 0.0 | 0.00 | 0.00 | 0.00 | 100 | 1014.8 |
| 20260505102014 | 11 | 0 | 0.0 | 0.0 | 0.00 | 0.00 | 0.00 | 100 | 1014.3 |
| 20260505101530 | 11 | 0 | 0.0 | 0.0 | 0.00 | 0.00 | 0.00 | 100 | 1014.6 |
| 20260505101015 | 11 | 0 | 0.0 | 0.0 | 0.00 | 0.00 | 0.00 | 100 | 1014.6 |
| 20260505100512 | 11 | 0 | 0.0 | 0.0 | 0.00 | 0.00 | 0.00 | 100 | 1014.7 |
| 20260505100032 | 12 | 0 | 0.0 | 0.0 | 0.00 | 0.00 | 0.00 | 100 | 1014.6 |
| 20260505095514 | 11 | 0 | 0.0 | 0.0 | 0.00 | 0.00 | 0.00 | 100 | 1014.4 |
| 20260505095017 | 11 | 0 | 0.0 | 0.0 | 0.00 | 0.00 | 0.00 | 100 | 1014.3 |
| 20260505094534 | 11 | 0 | 0.0 | 0.0 | 0.00 | 0.00 | 0.00 | 100 | 1014.3 |
| 20260505094013 | 12 | 0 | 0.0 | 0.0 | 0.00 | 0.00 | 0.00 | 100 | 1014.2 |
| 20260505093514 | 12 | 0 | 0.0 | 0.0 | 0.00 | 0.00 | 0.00 | 100 | 1014.2 |
| 20260505093040 | 12 | 0 | 0.0 | 0.0 | 0.00 | 0.00 | 0.00 | 100 | 1014.2 |
| 20260505092515 | 12 | 0 | 0.0 | 0.0 | 0.00 | 0.00 | 0.00 | 100 | 1014.2 |
| 20260505092015 | 12 | 0 | 0.0 | 0.0 | 0.00 | 0.00 | 0.00 | 100 | 1014.1 |
| 20260505091540 | 12 | 0 | 0.0 | 0.0 | 0.00 | 0.00 | 0.00 | 100 | 1014.1 |
| 20260505091013 | 12 | 0 | 0.0 | 0.0 | 0.00 | 0.00 | 0.00 | 100 | 1014.2 |
| 20260505090514 | 12 | 0 | 0.0 | 0.0 | 0.00 | 0.00 | 0.00 | 100 | 1014.1 |
| 20260505090045 | 12 | 0 | 0.0 | 0.0 | 0.00 | 0.00 | 0.00 | 100 | 1013.9 |
| 20260505085511 | 12 | 0 | 0.0 | 0.0 | 0.00 | 0.00 | 0.00 | 100 | 1014.1 |
| 20260505085012 | 12 | 0 | 0.0 | 0.0 | 0.00 | 0.00 | 0.00 | 100 | 1014.1 |
| 20260505084532 | 12 | 0 | 0.0 | 0.0 | 0.00 | 0.00 | 0.00 | 100 | 1014.3 |
| 20260505084014 | 12 | 0 | 0.0 | 0.0 | 0.00 | 0.00 | 0.00 | 100 | 1014.3 |
| 20260505083516 | 12 | 0 | 0.0 | 0.0 | 0.00 | 0.00 | 0.00 | 100 | 1014.2 |
| 20260505083030 | 12 | 0 | 0.0 | 0.0 | 0.00 | 0.00 | 0.00 | 100 | 1014.0 |
| 20260505082512 | 12 | 0 | 0.0 | 0.0 | 0.00 | 0.00 | 0.00 | 100 | 1014.0 |
| 20260505082013 | 12 | 0 | 0.0 | 0.0 | 0.00 | 0.00 | 0.00 | 100 | 1014.0 |
| 20260505081542 | 12 | 0 | 0.0 | 0.0 | 0.00 | 0.00 | 0.00 | 100 | 1013.8 |
| 20260505081015 | 12 | 0 | 0.0 | 0.0 | 0.00 | 0.00 | 0.00 | 100 | 1013.9 |
| 20260505080516 | 12 | 0 | 0.0 | 0.0 | 0.00 | 0.00 | 0.00 | 100 | 1014.0 |
| 20260505080046 | 12 | 0 | 0.0 | 0.0 | 0.00 | 0.00 | 0.00 | 100 | 1014.1 |
| 20260505075516 | 12 | 0 | 0.0 | 0.0 | 0.00 | 0.00 | 0.00 | 100 | 1014.1 |
| 20260505075016 | 12 | 0 | 0.0 | 0.0 | 0.00 | 0.00 | 0.00 | 100 | 1014.1 |
| 20260505074530 | 12 | 0 | 0.0 | 0.0 | 0.00 | 0.00 | 0.00 | 100 | 1014.2 |
| 20260505074015 | 12 | 0 | 0.0 | 0.0 | 0.00 | 0.00 | 0.00 | 100 | 1014.1 |
| 20260505073514 | 12 | 0 | 0.0 | 0.0 | 0.00 | 0.00 | 0.00 | 100 | 1014.0 |
| 20260505073045 | 12 | 0 | 0.0 | 0.0 | 0.00 | 0.00 | 0.00 | 99 | 1014.2 |
| 20260505072512 | 12 | 0 | 0.0 | 0.0 | 0.00 | 0.00 | 0.00 | 100 | 1014.2 |
| 20260505072015 | 12 | 0 | 0.0 | 0.0 | 0.00 | 0.00 | 0.00 | 100 | 1014.1 |
| 20260505071534 | 12 | 0 | 0.0 | 0.0 | 0.00 | 0.00 | 0.00 | 100 | 1014.1 |
| 20260505071014 | 12 | 0 | 0.0 | 0.0 | 0.00 | 0.00 | 0.00 | 99 | 1014.0 |
| 20260505070514 | 12 | 0 | 0.0 | 0.0 | 0.00 | 0.00 | 0.00 | 99 | 1014.0 |
| 20260505070034 | 12 | 0 | 0.0 | 0.0 | 0.00 | 0.00 | 0.00 | 99 | 1014.1 |
| 20260505065515 | 12 | 0 | 0.0 | 0.0 | 0.00 | 0.00 | 0.00 | 99 | 1014.2 |
| 20260505065013 | 12 | 0 | 0.0 | 0.0 | 0.00 | 0.00 | 0.00 | 99 | 1014.2 |
| 20260505064531 | 12 | 0 | 0.0 | 0.0 | 0.00 | 0.00 | 0.00 | 99 | 1014.2 |
| 20260505064016 | 12 | 0 | 0.0 | 0.0 | 0.00 | 0.00 | 0.00 | 99 | 1014.3 |
| 20260505063518 | 12 | 0 | 0.0 | 0.0 | 0.00 | 0.00 | 0.00 | 99 | 1014.4 |
| 20260505063033 | 12 | 0 | 0.0 | 0.0 | 0.00 | 0.00 | 0.00 | 99 | 1014.4 |
| 20260505062515 | 12 | 0 | 0.0 | 0.0 | 0.00 | 0.00 | 0.00 | 99 | 1014.5 |
| 20260505062014 | 12 | 0 | 0.0 | 0.0 | 0.00 | 0.00 | 0.00 | 99 | 1014.5 |
| 20260505061535 | 12 | 0 | 0.0 | 0.0 | 0.00 | 0.00 | 0.00 | 99 | 1014.5 |
| 20260505061015 | 12 | 0 | 0.0 | 0.0 | 0.00 | 0.00 | 0.00 | 99 | 1014.5 |
| 20260505060514 | 12 | 0 | 0.0 | 0.0 | 0.00 | 0.00 | 0.00 | 99 | 1014.5 |
| 20260505060036 | 12 | 0 | 0.0 | 0.0 | 0.00 | 0.00 | 0.00 | 99 | 1014.6 |
| 20260505055518 | 12 | 0 | 0.0 | 0.0 | 0.00 | 0.00 | 0.00 | 98 | 1014.6 |
| 20260505055017 | 12 | 0 | 0.0 | 0.0 | 0.00 | 0.00 | 0.00 | 98 | 1014.7 |
| 20260505054535 | 12 | 0 | 0.0 | 0.0 | 0.00 | 0.00 | 0.00 | 98 | 1014.6 |
| 20260505054014 | 13 | 0 | 0.0 | 0.0 | 0.00 | 0.00 | 0.00 | 98 | 1014.9 |
| 20260505053513 | 13 | 0 | 0.0 | 0.0 | 0.00 | 0.00 | 0.00 | 98 | 1014.9 |
| 20260505053034 | 13 | 0 | 0.0 | 0.0 | 0.00 | 0.00 | 0.00 | 99 | 1015.0 |
| 20260505052520 | 12 | 0 | 0.0 | 0.0 | 0.00 | 0.00 | 0.00 | 98 | 1015.0 |
| 20260505052018 | 12 | 0 | 0.0 | 0.0 | 0.00 | 0.00 | 0.00 | 97 | 1015.1 |
| 20260505051536 | 13 | 0 | 0.0 | 0.0 | 0.00 | 0.00 | 0.00 | 98 | 1015.1 |
| 20260505051011 | 13 | 0 | 0.0 | 0.0 | 0.00 | 0.00 | 0.00 | 97 | 1015.3 |
| 20260505050516 | 13 | 0 | 0.0 | 0.0 | 0.00 | 0.00 | 0.00 | 97 | 1015.4 |
| 20260505050109 | 13 | 0 | 0.0 | 0.0 | 0.00 | 0.00 | 0.00 | 97 | 1015.3 |
| 20260505041547 | 13 | 0 | 0.0 | 0.0 | 0.00 | 0.00 | 0.00 | 96 | 1015.4 |
| 20260505041014 | 13 | 0 | 0.0 | 0.0 | 0.00 | 0.00 | 0.00 | 96 | 1015.4 |
| 20260505040513 | 13 | 0 | 0.0 | 0.0 | 0.00 | 0.00 | 0.00 | 96 | 1015.4 |
| 20260505040031 | 13 | 0 | 0.0 | 0.0 | 0.00 | 0.00 | 0.00 | 95 | 1015.4 |
| 20260505035512 | 13 | 0 | 0.0 | 0.0 | 0.00 | 0.00 | 0.00 | 95 | 1015.5 |
| 20260505035014 | 13 | 0 | 0.0 | 0.0 | 0.00 | 0.00 | 0.00 | 96 | 1015.5 |
| 20260505034532 | 13 | 0 | 0.0 | 0.0 | 0.00 | 0.00 | 0.00 | 95 | 1015.5 |
| 20260505034015 | 13 | 0 | 0.0 | 0.0 | 0.00 | 0.00 | 0.00 | 95 | 1015.6 |
| 20260505033513 | 13 | 0 | 0.0 | 0.0 | 0.00 | 0.00 | 0.00 | 95 | 1015.7 |
| 20260505033032 | 13 | 0 | 0.0 | 0.0 | 0.00 | 0.00 | 0.00 | 95 | 1015.8 |
| 20260505032516 | 13 | 0 | 0.0 | 0.0 | 0.00 | 0.00 | 0.00 | 94 | 1015.8 |
| 20260505032011 | 13 | 0 | 0.0 | 0.0 | 0.00 | 0.00 | 0.00 | 94 | 1015.8 |
| 20260505031540 | 13 | 0 | 0.0 | 0.0 | 0.00 | 0.00 | 0.00 | 93 | 1015.9 |
| 20260505031013 | 14 | 0 | 0.0 | 0.0 | 0.00 | 0.00 | 0.00 | 93 | 1015.9 |
| 20260505030513 | 14 | 0 | 0.0 | 0.0 | 0.00 | 0.00 | 0.00 | 94 | 1015.9 |
| 20260505030037 | 14 | 0 | 0.0 | 0.0 | 0.00 | 0.00 | 0.00 | 92 | 1015.9 |
| 20260505025513 | 14 | 0 | 0.0 | 0.0 | 0.00 | 0.00 | 0.00 | 92 | 1015.9 |
| 20260505025013 | 14 | 0 | 0.0 | 0.0 | 0.00 | 0.00 | 0.00 | 91 | 1015.9 |
| 20260505024531 | 14 | 0 | 0.0 | 0.0 | 0.00 | 0.00 | 0.00 | 91 | 1015.9 |
| 20260505024013 | 14 | 0 | 0.0 | 0.0 | 0.00 | 0.00 | 0.00 | 90 | 1015.9 |
| 20260505023512 | 15 | 0 | 0.0 | 0.0 | 0.00 | 0.00 | 0.00 | 90 | 1015.9 |
| 20260505023039 | 15 | 0 | 0.0 | 0.0 | 0.00 | 0.00 | 0.00 | 90 | 1015.9 |
| 20260505022515 | 15 | 0 | 0.0 | 0.0 | 0.00 | 0.00 | 0.00 | 89 | 1015.9 |
| 20260505022016 | 15 | 0 | 0.0 | 0.0 | 0.00 | 0.00 | 0.00 | 89 | 1015.9 |
| 20260505021534 | 15 | 0 | 0.0 | 0.0 | 0.00 | 0.00 | 0.00 | 89 | 1015.9 |
| 20260505021013 | 15 | 0 | 0.0 | 0.0 | 0.00 | 0.00 | 0.00 | 88 | 1015.9 |
| 20260505020515 | 15 | 0 | 0.0 | 0.0 | 0.00 | 0.00 | 0.00 | 87 | 1015.9 |
| 20260505020036 | 16 | 0 | 0.0 | 0.0 | 0.00 | 0.00 | 0.00 | 87 | 1015.9 |
| 20260505015517 | 16 | 0 | 0.0 | 0.0 | 0.00 | 0.00 | 0.00 | 87 | 1015.9 |
| 20260505015014 | 16 | 0 | 0.0 | 0.0 | 0.00 | 0.00 | 0.00 | 86 | 1015.8 |
| 20260505014549 | 16 | 0 | 0.0 | 0.0 | 0.00 | 0.00 | 0.00 | 86 | 1015.7 |
| 20260505014013 | 16 | 0 | 0.0 | 0.0 | 0.00 | 0.00 | 0.00 | 86 | 1015.7 |
| 20260505013513 | 16 | 0 | 0.0 | 0.0 | 0.00 | 0.00 | 0.00 | 85 | 1015.7 |
| 20260505013036 | 16 | 0 | 0.0 | 0.0 | 0.00 | 0.00 | 0.00 | 84 | 1015.6 |
| 20260505012516 | 16 | 0 | 0.0 | 0.0 | 0.00 | 0.00 | 0.00 | 82 | 1015.4 |
| 20260505012017 | 17 | 0 | 0.0 | 0.0 | 0.00 | 0.00 | 0.00 | 81 | 1015.4 |
| 20260505011533 | 17 | 0 | 0.0 | 0.0 | 0.00 | 0.00 | 0.00 | 81 | 1015.3 |
| 20260505011019 | 17 | 0 | 0.0 | 0.0 | 0.00 | 0.00 | 0.00 | 80 | 1015.4 |
| 20260505010515 | 17 | 0 | 0.0 | 0.0 | 0.00 | 0.00 | 0.00 | 78 | 1015.3 |
| 20260505010034 | 18 | 0 | 0.0 | 0.0 | 0.00 | 0.00 | 0.00 | 77 | 1015.3 |
| 20260505005514 | 18 | 0 | 0.0 | 0.0 | 0.00 | 0.00 | 0.00 | 75 | 1015.2 |
| 20260505005014 | 18 | 0 | 0.0 | 0.0 | 0.00 | 0.00 | 0.00 | 74 | 1015.2 |
| 20260505004536 | 19 | 0 | 0.0 | 0.0 | 0.00 | 0.00 | 0.00 | 74 | 1015.3 |
| 20260505004013 | 19 | 0 | 0.0 | 0.0 | 0.00 | 0.00 | 0.00 | 73 | 1015.1 |
| 20260505003514 | 20 | 0 | 0.0 | 0.0 | 0.00 | 0.00 | 0.00 | 72 | 1015.1 |
| 20260505003033 | 20 | 0 | 0.0 | 0.0 | 0.00 | 0.00 | 0.00 | 70 | 1015.2 |
| 20260505002516 | 20 | 0 | 0.0 | 0.0 | 0.00 | 0.00 | 0.00 | 69 | 1015.1 |
| 20260505002017 | 21 | 0 | 0.0 | 0.0 | 0.00 | 0.00 | 0.00 | 68 | 1015.0 |
| 20260505001534 | 21 | 0 | 0.0 | 0.0 | 0.00 | 0.00 | 0.00 | 67 | 1014.9 |
| 20260505001016 | 21 | 0 | 0.0 | 1.6 | 0.00 | 0.00 | 0.00 | 67 | 1014.8 |
| 20260505000516 | 21 | 0 | 0.0 | 1.6 | 0.00 | 0.00 | 0.00 | 66 | 1014.7 |
| 20260505000040 | 21 | 26 | 0.0 | 1.6 | 0.00 | 0.00 | 0.00 | 66 | 1014.7 |
| 20260504235515 | 21 | 0 | 0.0 | 6.4 | 0.00 | 0.00 | 0.00 | 65 | 1014.8 |
| 20260504235015 | 22 | 48 | 1.6 | 6.4 | 0.00 | 0.00 | 0.00 | 64 | 1014.6 |
| 20260504234538 | 22 | 286 | 1.6 | 6.4 | 0.00 | 0.00 | 0.00 | 64 | 1014.5 |
| 20260504234015 | 22 | 298 | 0.0 | 4.8 | 0.00 | 0.00 | 0.00 | 63 | 1014.5 |
| 20260504233515 | 22 | 315 | 0.0 | 4.8 | 0.00 | 0.00 | 0.00 | 63 | 1014.4 |
| 20260504233034 | 22 | 280 | 1.6 | 4.8 | 0.00 | 0.00 | 0.00 | 63 | 1014.4 |
| 20260504232516 | 22 | 323 | 0.0 | 6.4 | 0.00 | 0.00 | 0.00 | 63 | 1014.4 |
| 20260504232016 | 22 | 301 | 1.6 | 11.3 | 0.00 | 0.00 | 0.00 | 62 | 1014.4 |
| 20260504231537 | 22 | 354 | 0.0 | 11.3 | 0.00 | 0.00 | 0.00 | 62 | 1014.4 |
| 20260504231015 | 23 | 346 | 1.6 | 6.4 | 0.00 | 0.00 | 0.00 | 62 | 1014.4 |
| 20260504230515 | 23 | 306 | 0.0 | 8.0 | 0.00 | 0.00 | 0.00 | 62 | 1014.4 |